TimePST,TemperatureF,Dew PointF,Humidity,Sea Level PressureIn,VisibilityMPH,Wind Direction,Wind SpeedMPH,Gust SpeedMPH,PrecipitationIn,Events,Conditions,WindDirDegrees,DateUTC
12:58 AM,44.2,41.4,90,30.29,10.0,Calm,Calm,-,N/A,,Clear,0,2013-03-09 08:58:00
1:58 AM,43.3,42.6,97,30.32,10.0,North,5.8,-,N/A,,Mostly Cloudy,10,2013-03-09 09:58:00
2:58 AM,44.2,41.7,91,30.33,10.0,North,6.9,-,N/A,,Clear,10,2013-03-09 10:58:00
3:58 AM,42.8,40.5,91,30.35,10.0,East,4.6,-,N/A,,Clear,80,2013-03-09 11:58:00
4:58 AM,40.3,38.1,92,30.36,10.0,ESE,2.3,-,N/A,,Clear,110,2013-03-09 12:58:00
5:58 AM,39.6,37.9,94,30.39,10.0,NE,2.3,-,N/A,,Clear,40,2013-03-09 13:58:00
6:58 AM,36.5,36.3,99,30.43,10.0,North,3.5,-,N/A,,Clear,10,2013-03-09 14:58:00
7:58 AM,44.8,44.2,98,30.46,10.0,NNW,5.8,-,N/A,,Clear,330,2013-03-09 15:58:00
8:58 AM,49.6,44.1,81,30.48,10.0,NW,6.9,-,N/A,,Clear,320,2013-03-09 16:58:00
9:58 AM,53.2,44.2,72,30.48,10.0,NW,11.5,-,N/A,,Clear,320,2013-03-09 17:58:00
10:58 AM,59.2,42.8,55,30.48,10.0,NNW,12.7,-,N/A,,Clear,340,2013-03-09 18:58:00
11:58 AM,62.8,36.9,38,30.48,10.0,NW,15.0,-,N/A,,Clear,320,2013-03-09 19:58:00
12:58 PM,65.8,35.8,33,30.46,10.0,NW,18.4,-,N/A,,Clear,320,2013-03-09 20:58:00
1:34 PM,68.0,33.8,28,30.23,10.0,NNW,16.1,-,N/A,,Clear,340,2013-03-09 21:34:00
1:58 PM,67.5,33.1,28,30.45,10.0,NNW,13.8,20.7,N/A,,Clear,330,2013-03-09 21:58:00
2:58 PM,69.1,31.1,24,30.44,10.0,NW,15.0,-,N/A,,Clear,320,2013-03-09 22:58:00
3:58 PM,69.3,32.4,26,30.44,10.0,WNW,13.8,-,N/A,,Clear,300,2013-03-09 23:58:00
4:58 PM,67.6,30.4,25,30.45,10.0,NW,12.7,-,N/A,,Clear,320,2013-03-10 00:58:00
5:58 PM,59.9,36.7,42,30.46,10.0,NW,8.1,-,N/A,,Clear,320,2013-03-10 01:58:00
6:58 PM,53.2,36.3,53,30.48,10.0,East,3.5,-,N/A,,Clear,100,2013-03-10 02:58:00
7:58 PM,52.3,34.9,51,30.49,10.0,NE,5.8,-,N/A,,Clear,50,2013-03-10 03:58:00
8:58 PM,45.5,35.2,67,30.49,10.0,North,5.8,-,N/A,,Clear,350,2013-03-10 04:58:00
9:58 PM,49.5,34.9,57,30.50,10.0,NNE,8.1,-,N/A,,Clear,20,2013-03-10 05:58:00
10:58 PM,47.8,33.8,58,30.51,10.0,NE,5.8,-,N/A,,Clear,40,2013-03-10 06:58:00
11:58 PM,47.1,34.3,61,30.51,10.0,NNE,11.5,-,N/A,,Clear,20,2013-03-10 07:58:00